Location: Newark
(45.2500°N, 7.5833°E)
Time: 20:49:14
(UTC+00:00)

Vanguard 3 - Pass Details

Date: 02 February 2020
Orbit: 508 x 3263 km, 33.3° (Epoch: 19 February)

Event Time Altitude Azimuth Distance (km) Brightness Sun altitude
Rises 12:32:23 0° 199° (SSW) 5,463 12.7 26.9°
Reaches altitude 10° 12:36:27 10° 187° (S) 4,859 12.9 26.7°
Maximum altitude 12:47:48 27° 138° (SE) 4,455 11.5 26.2°
Drops below altitude 10° 13:02:00 10° 91° (E) 6,192 11.5 25.4°
Sets 13:08:03 0° 81° (E) 7,217 11.7 25.0°
